Weather History for KMKC - December, 2012

Change the Weather History Date:

Friday, December 7, 2012

  Actual Average Record
Temperature  
Mean Temperature 46 °F -  
Max Temperature 48 °F 44 °F 62 °F (2000)
Min Temperature 44 °F 28 °F 5 °F (2013)
Degree Days  
Heating Degree Days 19    
Moisture  
Dew Point 41 °F    
Average Humidity 84    
Maximum Humidity 93    
Minimum Humidity 77    
Precipitation  
Precipitation 0.00 in - - ()
Sea Level Pressure  
Sea Level Pressure 29.90 in    
Wind  
Wind Speed 4 mph (NNE)    
Max Wind Speed 7 mph    
Max Gust Speed -    
Visibility 7 miles    
Events Rain    
Averages and records for this station are not official NWS values.
T = Trace of Precipitation, MM = Missing Value Source: NWS Daily Summary

Daily Weather History Graph

Daily Weather History Graph

Search for Another Location

Airport or City:

Trip Planner

Search our weather history database for the weather conditions in past years. The results will help you decide how hot, cold, wet, or windy it might be!

Date:

Astronomy

Dec. 07, 2012 Rise Set
Actual Time 7:24 AM CST 4:55 PM CST
Civil Twilight 6:54 AM CST 5:25 PM CST
Nautical Twilight 6:21 AM CST 5:58 PM CST
Astronomical Twilight 5:48 AM CST 6:31 PM CST
Moon 12:47 AM CST (12/7) 12:50 PM CST (12/7)
Length of Visible Light 10h 30m
Length of Day
9h 30m
Last Quarter, 38% of the Moon is Illuminated
Dec 7
Last Quarter
Dec 13
New
Dec 19
First Quarter
Dec 28
Full
Jan 4
Last Quarter

Hourly Weather History & Observations

Time (CST) Temp. Windchill Dew Point Humidity Pressure Visibility Wind Dir Wind Speed Gust Speed Precip Events Conditions
12:49 AM 46.4 °F 44.3 °F 42.8 °F 87% 29.91 in 5.0 mi NNE 4.6 mph - 0.00 in Rain Light Rain
12:54 AM 46.9 °F - 42.1 °F 83% 29.91 in 5.0 mi NNE 5.8 mph - 0.00 in   Haze
1:45 AM 46.4 °F 44.3 °F 42.8 °F 87% 29.91 in 9.0 mi NNE 4.6 mph - N/A   Overcast
1:54 AM 46.9 °F - 43.0 °F 86% 29.91 in 9.0 mi NNE 4.6 mph - N/A   Overcast
2:43 AM 46.4 °F 42.9 °F 42.8 °F 87% 29.91 in 10.0 mi NNE 6.9 mph - N/A   Overcast
2:54 AM 46.9 °F - 42.1 °F 83% 29.91 in 10.0 mi NNE 5.8 mph - N/A   Overcast
3:54 AM 45.0 °F 41.2 °F 42.1 °F 90% 29.91 in 4.0 mi North 6.9 mph - N/A   Overcast
4:45 AM 44.6 °F 41.4 °F 41.0 °F 87% 29.91 in 5.0 mi NNE 5.8 mph - 0.00 in   Overcast
4:54 AM 44.1 °F 40.1 °F 42.1 °F 93% 29.91 in 6.0 mi NNE 6.9 mph - 0.00 in   Overcast
5:54 AM 44.1 °F 41.5 °F 41.0 °F 89% 29.90 in 9.0 mi NE 4.6 mph - N/A   Overcast
6:54 AM 45.0 °F 42.6 °F 41.0 °F 86% 29.91 in 9.0 mi NE 4.6 mph - N/A   Overcast
7:18 AM 44.6 °F 43.1 °F 41.0 °F 87% 29.90 in 8.0 mi North 3.5 mph - N/A   Overcast
7:47 AM 44.6 °F 42.2 °F 41.0 °F 87% 29.91 in 8.0 mi NNE 4.6 mph - N/A   Overcast
7:54 AM 45.0 °F 43.5 °F 41.0 °F 86% 29.91 in 8.0 mi North 3.5 mph - N/A   Overcast
8:12 AM 44.6 °F 43.1 °F 42.8 °F 93% 29.90 in 7.0 mi NE 3.5 mph - N/A   Overcast
8:54 AM 46.0 °F - 42.1 °F 86% 29.92 in 7.0 mi Calm Calm - N/A   Overcast
9:54 AM 46.9 °F - 41.0 °F 80% 29.92 in 6.0 mi NE 3.5 mph - N/A   Haze
10:54 AM 46.9 °F - 42.1 °F 83% 29.91 in 5.0 mi NNE 5.8 mph - N/A   Haze
11:54 AM 46.9 °F - 42.1 °F 83% 29.89 in 5.0 mi NE 3.5 mph - N/A   Haze
12:54 PM 46.9 °F - 42.1 °F 83% 29.87 in 5.0 mi ENE 3.5 mph - N/A   Haze
1:54 PM 48.0 °F - 42.1 °F 80% 29.86 in 4.0 mi North 3.5 mph - N/A   Haze
2:54 PM 48.0 °F - 41.0 °F 77% 29.87 in 5.0 mi Calm Calm - N/A   Haze
3:54 PM 48.0 °F - 42.1 °F 80% 29.87 in 5.0 mi NNE 4.6 mph - N/A   Haze
4:54 PM 46.9 °F - 42.1 °F 83% 29.88 in 8.0 mi North 4.6 mph - N/A   Overcast
5:21 PM 46.4 °F 44.3 °F 41.0 °F 81% 29.88 in 8.0 mi North 4.6 mph - N/A   Overcast
5:32 PM 46.4 °F 43.5 °F 41.0 °F 81% 29.88 in 9.0 mi North 5.8 mph - N/A   Overcast
5:54 PM 46.9 °F - 41.0 °F 80% 29.89 in 9.0 mi NNE 4.6 mph - N/A   Overcast
6:47 PM 46.4 °F 43.5 °F 41.0 °F 81% 29.89 in 9.0 mi NNE 5.8 mph - N/A   Overcast
6:54 PM 46.4 °F 44.3 °F 41.0 °F 81% 29.89 in 9.0 mi NE 4.6 mph - N/A   Overcast
7:54 PM 45.0 °F 42.6 °F 39.9 °F 82% 29.91 in 9.0 mi NNE 4.6 mph - N/A   Mostly Cloudy
8:02 PM 44.6 °F 43.1 °F 39.2 °F 81% 29.91 in 9.0 mi NNE 3.5 mph - N/A   Mostly Cloudy
8:54 PM 44.1 °F 42.5 °F 39.0 °F 82% 29.91 in 9.0 mi East 3.5 mph - N/A   Mostly Cloudy
9:54 PM 45.0 °F 43.5 °F 39.9 °F 82% 29.92 in 8.0 mi NNW 3.5 mph - N/A   Overcast
10:42 PM 44.6 °F - 39.2 °F 81% 29.93 in 8.0 mi Calm Calm - N/A   Overcast
10:54 PM 44.1 °F - 39.9 °F 85% 29.94 in 7.0 mi Calm Calm - N/A   Overcast
11:40 PM 44.6 °F 42.2 °F 39.2 °F 81% 29.95 in 8.0 mi NNW 4.6 mph - N/A   Overcast
11:54 PM 44.1 °F - 39.0 °F 82% 29.95 in 8.0 mi Calm Calm - N/A   Overcast